Location: Krasnoyarskiy
(51.1133°N, 71.6497°E)
Time: 22:37:00
(UTC+00:00)

SL-16 R/B - Pass Details

Date: 27 September 2022
Orbit: 842 x 845 km, 71.0° (Epoch: 03 December)

Event Time Altitude Azimuth Distance (km) Brightness Sun altitude
Rises 00:22:39 0° 331° (NNW) 3,414 5.1 -7.8°
Reaches altitude 10° 00:25:10 10° 336° (NNW) 2,476 4.5 -7.4°
Maximum altitude 00:30:44 54° 53° (NE) 1,020 3.1 -6.5°
Drops below altitude 10° 00:36:17 10° 131° (SE) 2,464 5.3 -5.6°
Sets 00:38:47 0° 136° (SE) 3,396 6.0 -5.3°
